Des Moines, IA

4:56 PM CST on December 13, 2017 (GMT -0600)
Des Moines International

Weather History for KDSM - September, 2013

Change the Weather History Date:

Sunday, September 15, 2013

  Actual Average Record
Temperature  
Mean Temperature 66 °F 66 °F  
Max Temperature 72 °F 77 °F 97 °F (1927)
Min Temperature 60 °F 56 °F 37 °F (2007)
Degree Days  
Heating Degree Days 0 3  
Month to date heating degree days 1 22  
Since 1 July heating degree days 1 28  
Cooling Degree Days 1 4  
Month to date cooling degree days 169 79  
Year to date cooling degree days 1270 1018  
Growing Degree Days 18 (Base 50)    
Moisture  
Dew Point 56 °F    
Average Humidity 67    
Maximum Humidity 93    
Minimum Humidity 40    
Precipitation  
Precipitation 0.04 in 0.10 in 1.67 in (1921)
Month to date precipitation 0.21 1.62  
Year to date precipitation 23.75 28.34  
Snow  
Snow 0.00 in 0.00 in - ()
Month to date snowfall 0.0 0.0  
Since 1 July snowfall 0.0 0.0  
Since 1 September snowfall 0.0 0.0  
Snow Depth 0.00 in    
Sea Level Pressure  
Sea Level Pressure 29.99 in    
Wind  
Wind Speed 11 mph (WNW)    
Max Wind Speed 22 mph    
Max Gust Speed 28 mph    
Visibility 10 miles    
Events Rain , Thunderstorm    
T = Trace of Precipitation, MM = Missing Value Source: NWS Daily Summary

Daily Weather History Graph

Daily Weather History Graph

Search for Another Location

Airport or City:

Trip Planner

Search our weather history database for the weather conditions in past years. The results will help you decide how hot, cold, wet, or windy it might be!

Date:

Astronomy

Sep. 15, 2013 Rise Set
Actual Time 6:55 AM CDT 7:23 PM CDT
Civil Twilight 6:27 AM CDT 7:51 PM CDT
Nautical Twilight 5:54 AM CDT 8:23 PM CDT
Astronomical Twilight 5:20 AM CDT 8:57 PM CDT
Moon 4:53 PM CDT (9/15) 2:31 AM CDT (9/15)
Length of Visible Light 13h 23m
Length of Day
12h 28m
Waxing Gibbous, 82% of the Moon is Illuminated
Sep 15
Waxing Gibbous
Sep 19
Full
Sep 26
Last Quarter
Oct 4
New
Oct 11
First Quarter

Hourly Weather History & Observations

Time (CDT) Temp. Dew Point Humidity Pressure Visibility Wind Dir Wind Speed Gust Speed Precip Events Conditions
12:54 AM 69.1 °F 45.0 °F 42% 29.90 in 10.0 mi South 11.5 mph - N/A   Overcast
1:54 AM 69.1 °F 46.0 °F 44% 29.89 in 10.0 mi SSW 11.5 mph - N/A   Overcast
2:54 AM 68.0 °F 48.0 °F 49% 29.88 in 10.0 mi South 10.4 mph - N/A   Overcast
3:40 AM 68.0 °F 50.0 °F 52% 29.88 in 10.0 mi South 10.4 mph - 0.00 in Rain , Thunderstorm Light Thunderstorms and Rain
3:54 AM 64.0 °F 53.1 °F 67% 29.86 in 10.0 mi SSW 8.1 mph - 0.01 in Thunderstorm Thunderstorm
4:08 AM 64.0 °F 54.0 °F 70% 29.87 in 10.0 mi South 11.5 mph - N/A   Overcast
4:54 AM 64.0 °F 54.0 °F 70% 29.86 in 10.0 mi SSW 13.8 mph - 0.00 in   Mostly Cloudy
5:54 AM 64.0 °F 55.9 °F 75% 29.86 in 10.0 mi SSW 12.7 mph - 0.00 in   Overcast
6:54 AM 64.0 °F 57.9 °F 80% 29.88 in 10.0 mi SW 11.5 mph - N/A   Overcast
7:54 AM 66.0 °F 61.0 °F 84% 29.88 in 10.0 mi West 12.7 mph - 0.00 in Rain Light Rain
8:54 AM 64.9 °F 62.1 °F 90% 29.88 in 10.0 mi WSW 11.5 mph - 0.02 in Rain Light Rain
9:47 AM 66.9 °F 62.1 °F 84% 29.92 in 10.0 mi WSW 11.5 mph - 0.01 in   Overcast
9:54 AM 66.9 °F 62.1 °F 84% 29.91 in 10.0 mi WSW 9.2 mph - 0.01 in   Overcast
10:05 AM 68.0 °F 63.0 °F 84% 29.93 in 10.0 mi WSW 9.2 mph - N/A   Overcast
10:40 AM 68.0 °F 63.0 °F 84% 29.95 in 10.0 mi WSW 9.2 mph - N/A   Overcast
10:54 AM 69.1 °F 63.0 °F 81% 29.94 in 10.0 mi West 9.2 mph - N/A   Overcast
11:41 AM 70.0 °F 62.1 °F 76% 29.97 in 10.0 mi WNW 8.1 mph - 0.00 in   Overcast
11:54 AM 70.0 °F 62.1 °F 76% 29.97 in 10.0 mi WNW 6.9 mph - 0.00 in   Overcast
12:05 PM 70.0 °F 61.0 °F 73% 29.98 in 10.0 mi NW 10.4 mph - 0.00 in Rain Light Rain
12:54 PM 69.1 °F 57.9 °F 68% 29.99 in 10.0 mi North 12.7 mph - 0.00 in   Overcast
1:08 PM 71.1 °F 59.0 °F 66% 30.00 in 10.0 mi North 15.0 mph 20.7 mph N/A   Overcast
1:36 PM 70.0 °F 57.0 °F 63% 30.01 in 10.0 mi North 13.8 mph - N/A   Overcast
1:54 PM 71.1 °F 57.0 °F 61% 30.00 in 10.0 mi North 16.1 mph 21.9 mph N/A   Overcast
2:54 PM 70.0 °F 55.9 °F 61% 30.02 in 10.0 mi NNE 16.1 mph - N/A   Overcast
3:54 PM 68.0 °F 55.0 °F 63% 30.06 in 10.0 mi North 15.0 mph 26.5 mph N/A   Overcast
4:54 PM 66.9 °F 54.0 °F 63% 30.09 in 10.0 mi NNE 13.8 mph 24.2 mph N/A   Overcast
5:54 PM 66.9 °F 54.0 °F 63% 30.11 in 10.0 mi NE 17.3 mph - N/A   Overcast
6:54 PM 66.0 °F 53.1 °F 63% 30.13 in 10.0 mi NE 17.3 mph 24.2 mph N/A   Overcast
7:14 PM 66.0 °F 52.0 °F 60% 30.15 in 10.0 mi NE 13.8 mph - N/A   Overcast
7:54 PM 64.9 °F 52.0 °F 63% 30.15 in 10.0 mi NE 12.7 mph - N/A   Overcast
8:54 PM 64.9 °F 53.1 °F 65% 30.19 in 10.0 mi NE 9.2 mph - N/A   Overcast
9:54 PM 64.9 °F 53.1 °F 65% 30.20 in 10.0 mi NE 6.9 mph - N/A   Overcast
10:54 PM 64.0 °F 53.1 °F 67% 30.21 in 10.0 mi ENE 5.8 mph - N/A   Overcast
11:54 PM 62.1 °F 53.1 °F 72% 30.23 in 10.0 mi NE 3.5 mph - N/A   Mostly Cloudy